WARR

Surabaya/Juanda International Airport

Airport
ICAO code
WARR
IATA Code
SUB
Summary
ICAO Region
APAC
ICAO Territory
Location

Sidoarjo, Jawa Timur

Serving
Surabaya
Elevation
9 ft
Coordinates
7° 22' 47" S , 112° 47' 13" E
KCC
Metar
WARR 222300Z 27005KT 3000 BR FEW020 27/27 Q1010 NOSIG METAR WIII 222300Z 26007KT 8000 FEW020 27/25 Q1011 NOSIG

Juanda International Airport is an airport located in Sidoarjo, a small town near Surabaya, East Java. This airport serves Surabaya and surrounding areas.

Climatology

Tropical Savanna climate (Köppen climate classification Aw) - monthly mean temperature above 18°C in every month of the year and a pronounced dry season.

Airport map

Aerial View

Airport accidents

SKYbrary Partners:

Safety knowledge contributed by: